Regional Weather Roundup
Issued by NWS

Home | Current Version | Previous Version | Text Only | Print | Product List | Glossary Off
Versions: 1 2 3 4 5 6 7 8 9 10 11 12 13 14 15 16 17 18 19 20 21 22 23 24 25 26 27 28 29 30 31 32 33 34 35 36 37 38 39 40 41 42 43 44 45 46 47 48 49 50

000
ASUS43 KIND 291809
RWRIN

WEATHER ROUNDUP FOR INDIANA
NATIONAL WEATHER SERVICE INDIANAPOLIS IN
200 PM EDT SAT AUG 29 2015

NOTE: "FAIR" INDICATES FEW OR NO CLOUDS BELOW 12,000 FEET WITH NO
SIGNIFICANT WEATHER AND/OR OBSTRUCTIONS TO VISIBILITY.

* - STATION DOES NOT REPORT WEATHER SUCH AS PRECIPITATION OR FOG.

+ - STATION NOT QUALITY CONTROLLED BY THE NATIONAL WEATHER SERVICE.
    USE DATA WITH CAUTION...ESPECIALLY DEWPOINT AND RELATIVE
    HUMIDITY OBSERVATIONS.

INZ001>003-010>013-019-020-291900-
NORTHWEST INDIANA

CITY           SKY/WX    TMP DP  RH WIND       PRES   REMARKS
GARY /AIRPORT/ CLOUDY    75  64  69 S6        30.05S
KNOX *+        CLOUDY    70  66  88 N3        30.06S
LA PORTE +     CLOUDY    70  70 100 SE6       30.07F
6HR MIN TEMP:  63; 6HR MAX TEMP:  70; 6HR PCP:  0.05;

MICHIGAN CITY+ CLOUDY    68  66  94 SE6       30.05F
MONTICELLO +   CLOUDY    77  68  74 SE3       30.05F
6HR MIN TEMP:  65; 6HR MAX TEMP:  77;

RENSSELAER +   RAIN      73  68  83 W7        30.06S
VALPARAISO     CLOUDY    71  66  84 SE7       30.06F
6HR MIN TEMP:  62; 6HR MAX TEMP:  71; 6HR PCP:  0.06;


$$

LMZ046-743>745-291900-
SOUTHERN LAKE MICHIGAN

STATION/POSITION TIME  TEMP    WIND        PRES    WAVE
                       AIR SEA DIR/SP/G            HT
                 (UTC) (F)     (DEG/KT/KT) (MB)    (FT)
BURNS HARBOR     1700   71     170/  8/ 15 1017.9S
MICHIGAN CITY    1700   67     100/  8/ 10   N/A
5NW MICH CITY    1800   69 71  170/ 10/ 12   N/A     1

$$

INZ004-005-014>016-021>024-291900-
NORTH CENTRAL INDIANA

CITY           SKY/WX    TMP DP  RH WIND       PRES   REMARKS
ELKHART        CLOUDY    66  64  94 CALM      30.08S FOG
GOSHEN         LGT RAIN  70  66  87 S3        30.07F FOG
6HR MIN TEMP:  64; 6HR MAX TEMP:  72; 6HR PCP:  0.04;

LOGANSPORT +   CLOUDY    77  61  57 S8        30.08S
PERU/GRISSOM   CLOUDY    77  67  70 S9        30.07F
6HR MIN TEMP:  64; 6HR MAX TEMP:  79; 6HR PCP: TRACE;

ROCHESTER +    CLOUDY    81  66  61 S6        30.08R HAZE
SOUTH BEND     CLOUDY    68  66  93 S3        30.07F
6HR MIN TEMP:  64; 6HR MAX TEMP:  68; 6HR PCP:  0.08;

WARSAW +       CLOUDY    73  64  73 CALM      30.08S

$$

INZ006>009-017-018-025>027-291900-
NORTHEAST INDIANA

CITY           SKY/WX    TMP DP  RH WIND       PRES   REMARKS
ANGOLA *+      MOSUNNY   72  64  78 SE3       30.08F
AUBURN +       CLOUDY    73  63  68 CALM      30.09F
FORT WAYNE     LGT RAIN  77  67  71 CALM      30.09F
6HR MIN TEMP:  64; 6HR MAX TEMP:  79; 6HR PCP:  0.01;

HUNTINGTON +   CLOUDY    78  62  58 SW6       30.08F
6HR MIN TEMP:  63; 6HR MAX TEMP:  79;


$$

INZ028-029-035-036-043>045-051>053-291900-
WEST CENTRAL INDIANA

CITY           SKY/WX    TMP DP  RH WIND       PRES   REMARKS
CRAWFORDSVL +  CLOUDY    77  63  61 S6        30.08S
6HR MIN TEMP:  63; 6HR MAX TEMP:  78;

GREENCASTLE +  CLOUDY    75  64  69 S5        30.09F
LAFAYETTE      CLOUDY    77  66  68 SE6       30.05F
6HR MIN TEMP:  66; 6HR MAX TEMP:  78;

TERRE HAUTE    CLOUDY    81  69  67 S8        30.07F
6HR MIN TEMP:  66; 6HR MAX TEMP:  81;


$$

INZ030>032-037>040-046>048-054>057-064-065-291900-
CENTRAL INDIANA

CITY           SKY/WX    TMP DP  RH WIND       PRES   REMARKS
ANDERSON       SUNNY     81  61  50 S6        30.11F
COLUMBUS       PTSUNNY   82  68  61 S14       30.10F
FRANKFORT +    CLOUDY    80  69  68 S7        30.10S
6HR MIN TEMP:  65; 6HR MAX TEMP:  80;

GREENWOOD *+   CLOUDY    82  64  54 SW8       30.10F
INDIANAPOLIS   CLOUDY    79  66  64 SW8       30.08F
6HR MIN TEMP:  66; 6HR MAX TEMP:  79;

-EAGLE CREEK   CLOUDY    79  66  64 VRB6      30.08F
6HR MIN TEMP:  67; 6HR MAX TEMP:  79;

KOKOMO *+      CLOUDY    77  66  69 SW7       30.08F
6HR MIN TEMP:  63; 6HR MAX TEMP:  79;

MARION +       CLOUDY    78  57  48 S9        30.09F
MT COMFORT *+  CLOUDY    79  63  57 S8        30.10S
SHELBYVILLE    CLOUDY    82  69  64 S9        30.09F
6HR MIN TEMP:  68; 6HR MAX TEMP:  82;

ZIONSVILLE +   CLOUDY    79  66  64 S6        30.10S
6HR MIN TEMP:  66; 6HR MAX TEMP:  79;


$$

INZ033-034-041-042-049-050-058-059-291900-
EAST CENTRAL INDIANA

CITY           SKY/WX    TMP DP  RH WIND       PRES   REMARKS
MUNCIE         CLOUDY    79  66  64 SW9       30.10F
6HR MIN TEMP:  66; 6HR MAX TEMP:  79;


$$

INZ060-061-067>069-081>083-085>088-291900-
SOUTHWEST INDIANA

CITY           SKY/WX    TMP DP  RH WIND       PRES   REMARKS
EVANSVILLE     PTSUNNY   83  70  64 S6        30.07F
6HR MIN TEMP:  70; 6HR MAX TEMP:  85;

HUNTINGBURG *+ MOSUNNY   84  72  65 SW8       30.09F
6HR MIN TEMP:  70; 6HR MAX TEMP:  84;

WASHINGTON +   CLOUDY    84  63  48 S9        30.07F
6HR MIN TEMP:  68; 6HR MAX TEMP:  84;


$$

INZ062-063-066-070>080-084-089>092-291900-
SOUTH CENTRAL AND SOUTHEAST INDIANA

CITY           SKY/WX    TMP DP  RH WIND       PRES   REMARKS
BLOOMINGTON    CLOUDY    81  69  67 S9        30.09F
6HR MIN TEMP:  66; 6HR MAX TEMP:  81;

MADISON *+     PTSUNNY   82  66  57 S5        30.13F
NORTH VERNON + CLOUDY    81  70  69 CALM      30.12F
SEYMOUR +      CLOUDY    86  68  54 S8        30.09F

$$




USA.gov is the U.S. government's official web portal to all federal, state and local government web resources and services.